Home   Weather   Växjö   Past weeks

Flag for Sweden Past Weather in Växjö, Sweden — Yesterday and Last 2 Weeks

37 °F

Passing clouds.

Feels Like: 32 °F
Forecast: 33 / 44 °F
Wind: 7 mph from Northwest

Location: Vaxjo Airport

Current Time: Oct 25, 2016 at 9:22:59 PM

Latest Report: Oct 25, 2016 at 8:50 PM

Visibility: N/A

Pressure: 30.24 "Hg

Humidity: 93%

Dew Point: 36 °F

Location of VäxjöLocation

Past Weather in Växjö — Graph


Växjö Temperature Yesterday

Maximum temperature yesterday: 45 °F (at 1:20 PM)
Minimum temperature yesterday: 37 °F (at 1:50 AM)
Average temperature yesterday: 42 °F

High & Low Weather Summary for the Past Weeks

High50 °F (Oct 19, 2:20 PM)100% (Oct 17, 2:20 AM)30.45 "Hg (Oct 17, 2:20 AM)
Low36 °F (Oct 22, 6:50 AM)62% (Oct 11, 4:50 PM)30.04 "Hg (Oct 19, 2:50 AM)
Average43 °F86%30.23 "Hg
* Reported Oct 10 7:20 PM — Oct 25 7:50 PM, Växjö, Weather by CustomWeather, © 2016

Note: Actual official high and low records may vary slightly from our data, if they occured in-between our weather recording intervals... More about our weather records


Växjö Weather History for the Previous 24 Hours

Scroll right to see more
Time TempWeatherWind HumidityBarometerVisibility
7:50 PM
Tue, Oct 25
39 °FOvercast.6 mph87%30.24 "HgN/A
7:20 PM39 °FOvercast.7 mph87%30.24 "HgN/A
6:50 PM39 °FPassing clouds.8 mph87%30.21 "HgN/A
6:20 PM39 °FOvercast.7 mph87%30.21 "HgN/A
5:50 PM39 °FPassing clouds.7 mph93%30.21 "HgN/A
5:20 PM41 °FOvercast.9 mph81%30.21 "HgN/A
4:50 PM41 °FOvercast.12 mph87%30.18 "HgN/A
4:20 PM41 °FBroken clouds.8 mph87%30.18 "HgN/A
3:50 PM41 °FBroken clouds.8 mph93%30.18 "HgN/A
3:20 PM41 °FDrizzle. More clouds than sun.10 mph87%30.18 "HgN/A
2:50 PM43 °FBroken clouds.7 mph87%30.18 "HgN/A
2:20 PM43 °FBroken clouds.8 mph87%30.18 "HgN/A
1:50 PM43 °FBroken clouds.8 mph87%30.18 "HgN/A
1:20 PM43 °FBroken clouds.8 mph87%30.18 "HgN/A
12:50 PM43 °FBroken clouds.6 mph87%30.15 "HgN/A
12:20 PM43 °FBroken clouds.8 mph87%30.15 "HgN/A
11:50 AM43 °FBroken clouds.10 mph87%30.15 "HgN/A
11:20 AM43 °FBroken clouds.8 mph87%30.15 "HgN/A
10:50 AM43 °FBroken clouds.7 mph87%30.15 "HgN/A
10:20 AM43 °FBroken clouds.7 mph87%30.15 "HgN/A
9:50 AM41 °FMostly cloudy.6 mph93%30.15 "HgN/A
9:20 AM41 °FMostly cloudy.7 mph93%30.15 "HgN/A
8:50 AM41 °FLow clouds.6 mph93%30.12 "HgN/A
8:20 AM41 °FLow clouds.5 mph93%30.12 "HgN/A
7:50 AM41 °FOvercast.5 mph93%30.12 "HgN/A
7:20 AM41 °FPartly cloudy.6 mph93%30.12 "HgN/A
6:50 AM41 °FMostly cloudy.5 mph93%30.12 "HgN/A
6:20 AM41 °FMostly cloudy.5 mph93%30.12 "HgN/A
5:50 AM41 °FMostly cloudy.3 mph93%30.12 "HgN/A
5:20 AM41 °FPartly cloudy.6 mph93%30.12 "HgN/A
4:50 AM41 °FMostly cloudy.5 mph93%30.12 "HgN/A
4:20 AM43 °FMostly cloudy.5 mph87%30.12 "HgN/A
3:50 AM41 °FMostly cloudy.7 mph93%30.12 "HgN/A
3:20 AM43 °FPartly cloudy.9 mph87%30.12 "HgN/A
2:50 AM43 °FOvercast.7 mph93%30.12 "HgN/A
2:20 AM41 °FMostly cloudy.7 mph100%30.12 "HgN/A
1:50 AM43 °FPartly cloudy.7 mph87%30.15 "HgN/A
1:20 AM43 °FMostly cloudy.8 mph93%30.15 "HgN/A
12:50 AM43 °FPassing clouds.6 mph93%30.15 "HgN/A
12:20 AM43 °FMostly cloudy.8 mph93%30.15 "HgN/A
11:50 PM
Mon, Oct 24
43 °FLight rain. Mostly cloudy.8 mph93%30.15 "HgN/A
11:20 PM43 °FDrizzle. Mostly cloudy.7 mph93%30.15 "HgN/A
10:50 PM43 °FPartly cloudy.7 mph93%30.15 "HgN/A
10:20 PM43 °FPartly cloudy.7 mph93%30.15 "HgN/A
9:50 PM43 °FPassing clouds.7 mph93%30.15 "HgN/A
9:20 PM43 °FLow clouds.7 mph93%30.15 "HgN/A
Weather by CustomWeather, © 2016

See weather overviewHow to use our weather pages